This demonstration page uses our WeatherBlox Daily Observations layout. Learn more.

Left ArrowRight Arrow

38.83388, -104.82136

Hourly Observations for January 12, 2017

Temp ( °F °C ) Dew Point ( °F °C ) Humidity (%) Winds ( mph kmh ) Pressure ( in mb ) Visibility ( mi km ) Precip ( " mm )
12:58 am 00:58 Clear 38 3.1 14 -9.8 39 39 WNW 21 33 29.42 996 10 16 N/A
1:58 am 01:58 Clear 37 2.9 16 -8.9 42 42 WNW 14 22 29.48 998 10 16 N/A
2:58 am 02:58 Clear 36 2.3 14 -9.9 40 40 E 7 11 29.52 1000 10 16 N/A
3:58 am 03:58 Mostly Clear 35 1.9 14 -9.8 42 42 W 10 17 29.54 1000 10 16 N/A
4:58 am 04:58 Mostly Clear 35 1.8 14 -10.2 41 41 SW 5 7 29.56 1001 10 16 N/A
5:58 am 05:58 Clear 33 0.5 14 -10.2 45 45 WSW 3 6 29.58 1002 10 16 N/A
6:58 am 06:58 Clear 36 2.1 13 -10.8 38 38 WSW 5 7 29.60 1002 10 16 N/A
7:58 am 07:58 Sunny 38 3.5 11 -11.8 32 32 WSW 9 15 29.61 1003 10 16 N/A
8:58 am 08:58 Sunny 39 4 10 -12.3 30 30 NW 6 9 29.65 1004 10 16 N/A
9:58 am 09:58 Partly Cloudy 38 3.5 11 -11.6 32 32 NW 7 11 29.70 1006 10 16 N/A
10:58 am 10:58 Mostly Cloudy 39 4.1 15 -9.4 37 37 Calm 29.70 1006 10 16 N/A
11:58 am 11:58 Mostly Sunny 41 5.1 15 -9.3 35 35 ESE 7 11 29.67 1005 10 16 N/A
12:58 pm 12:58 Sunny 44 6.7 15 -9.6 30 30 SSE 21 33 29.62 1003 10 16 N/A
1:58 pm 13:58 Mostly Sunny 41 5 16 -9.1 36 36 SSE 22 35 29.65 1004 10 16 N/A
2:58 pm 14:58 Partly Cloudy 38 3.4 20 -6.7 48 48 SSE 14 22 29.70 1006 10 16 N/A
3:58 pm 15:58 Mostly Cloudy 37 2.8 18 -7.7 46 46 SE 10 17 29.74 1007 10 16 N/A
4:58 pm 16:58 Cloudy 35 1.4 19 -7.3 53 53 SSE 12 19 29.79 1009 10 16 N/A
5:58 pm 17:58 Cloudy 30 -0.9 21 -5.9 69 69 SSE 10 17 29.83 1010 10 16 N/A
6:58 pm 18:58 Mostly Cloudy 28 -2.3 22 -5.4 80 80 SSE 13 20 29.85 1011 10 16 N/A
7:53 pm 19:53 Mostly Cloudy 25 -4 21 -6 86 86 S 13 20 30.24 1024 10 16 N/A
7:58 pm 19:58 Mostly Cloudy 25 -4 22 -5.6 89 89 S 15 24 29.85 1011 10 16 N/A
8:58 pm 20:58 Mostly Cloudy 23 -5.1 21 -6.3 91 91 SSE 16 26 29.85 1011 10 16 N/A
9:33 pm 21:33 Mostly Cloudy 21 -6 19 -7 93 93 SSE 10 17 30.30 1026 10 16 N/A
9:58 pm 21:58 Mostly Cloudy with Mist and Fog 20 -6.8 19 -7.1 98 98 SSE 13 20 29.90 1013 5 8 N/A
10:58 pm 22:58 Mostly Cloudy with Freezing Fog 17 -8.1 16 -8.7 96 96 SSE 9 15 29.91 1013 1 2 N/A
11:58 pm 23:58 Mostly Cloudy with Freezing Fog 16 -8.7 15 -9.4 95 95 S 6 9 29.90 1013 0 0 N/A

Powered by AerisWeather